FIN9YA EDDB-EFHK

Flight info

Callsign FIN9YA
Flight time 1h 29m
Altitude 37000
Route GERGA4B/06L GERGA M725 RENKI L132 DEMUR N746 GORPI DCT ALAMI DCT OKEVU DCT EVADI Y370 DIVAM
Aircraft A321/M-SDE1E2E3FGIJ1M1RWXYZ/LB1

Departure

Time 2026-05-05 15:11
Airport Berlin Brandenburg Airport (EDDB)

Arrival

Time 2026-05-05 16:40
Airport Helsinki Vantaa Airport (EFHK)
Time Latitude Longitude Altitude Speed Heading
2026-05-05 14:34 52.36819 13.50858 155 ft 0 kts 159°
2026-05-05 15:01 52.36830 13.50851 155 ft 4 kts 159°
2026-05-05 15:02 52.36847 13.50841 155 ft 4 kts 166°
2026-05-05 15:02 52.36873 13.50835 155 ft 4 kts 187°
2026-05-05 15:02 52.36896 13.50849 155 ft 4 kts 236°
2026-05-05 15:02 52.36900 13.50859 155 ft 0 kts 249°
2026-05-05 15:04 52.36894 13.50835 155 ft 4 kts 249°
2026-05-05 15:05 52.36852 13.50653 155 ft 13 kts 248°
2026-05-05 15:05 52.36816 13.50508 155 ft 13 kts 248°
2026-05-05 15:05 52.36788 13.50389 155 ft 9 kts 249°
2026-05-05 15:06 52.36768 13.50306 155 ft 6 kts 249°
2026-05-05 15:06 52.36758 13.50255 155 ft 3 kts 257°
2026-05-05 15:06 52.36758 13.50233 155 ft 1 kts 269°
2026-05-05 15:06 52.36758 13.50226 155 ft 0 kts 278°
2026-05-05 15:07 52.36766 13.50207 155 ft 6 kts 303°
2026-05-05 15:07 52.36815 13.50121 155 ft 14 kts 273°
2026-05-05 15:07 52.36772 13.49919 155 ft 21 kts 249°
2026-05-05 15:07 52.36722 13.49701 155 ft 20 kts 249°
2026-05-05 15:08 52.36671 13.49496 155 ft 19 kts 248°
2026-05-05 15:08 52.36625 13.49295 155 ft 18 kts 249°
2026-05-05 15:08 52.36579 13.49103 155 ft 18 kts 249°
2026-05-05 15:08 52.36536 13.48919 155 ft 17 kts 249°
2026-05-05 15:09 52.36493 13.48743 155 ft 16 kts 249°
2026-05-05 15:09 52.36453 13.48575 155 ft 15 kts 249°
2026-05-05 15:09 52.36450 13.48422 155 ft 14 kts 316°
2026-05-05 15:09 52.36535 13.48358 155 ft 14 kts 339°
2026-05-05 15:10 52.36636 13.48296 155 ft 17 kts 341°
2026-05-05 15:10 52.36737 13.48365 155 ft 19 kts 65°
2026-05-05 15:10 52.36825 13.48738 155 ft 65 kts 69°
2026-05-05 15:10 52.37069 13.49766 155 ft 125 kts 69°
2026-05-05 15:11 52.37442 13.51338 215 ft 164 kts 68°
2026-05-05 15:11 52.37848 13.53060 862 ft 161 kts 66°
2026-05-05 15:11 52.38253 13.54795 1460 ft 166 kts 66°
2026-05-05 15:11 52.38694 13.56668 1738 ft 187 kts 68°
2026-05-05 15:12 52.39186 13.58755 1964 ft 210 kts 68°
2026-05-05 15:12 52.39742 13.61111 2221 ft 235 kts 67°
2026-05-05 15:12 52.40358 13.63728 2720 ft 254 kts 67°
2026-05-05 15:12 52.41003 13.66471 3488 ft 261 kts 68°
2026-05-05 15:13 52.41664 13.69283 4284 ft 267 kts 68°
2026-05-05 15:13 52.42341 13.72163 5065 ft 274 kts 68°
2026-05-05 15:13 52.43036 13.75113 5842 ft 280 kts 68°
2026-05-05 15:13 52.43859 13.78025 6625 ft 284 kts 57°
2026-05-05 15:14 52.45096 13.80570 7376 ft 287 kts 41°
2026-05-05 15:14 52.46597 13.82771 8122 ft 291 kts 40°
2026-05-05 15:14 52.48127 13.84997 8897 ft 294 kts 40°
2026-05-05 15:14 52.49648 13.87216 9650 ft 299 kts 40°
2026-05-05 15:15 52.51220 13.89519 10159 ft 311 kts 40°
2026-05-05 15:15 52.52894 13.91977 10323 ft 334 kts 40°
2026-05-05 15:15 52.54674 13.94597 10680 ft 348 kts 40°
2026-05-05 15:15 52.56496 13.97278 11282 ft 354 kts 40°
2026-05-05 15:16 52.58480 13.99621 11897 ft 357 kts 27°
2026-05-05 15:16 52.60777 14.01210 12532 ft 358 kts 13°
2026-05-05 15:16 52.63249 14.01907 13174 ft 359 kts 360°
2026-05-05 15:16 52.65716 14.01695 13795 ft 359 kts 349°
2026-05-05 15:17 52.68211 14.01152 14384 ft 363 kts 349°
2026-05-05 15:17 52.70728 14.00607 14978 ft 366 kts 349°
2026-05-05 15:17 52.73272 14.00061 15568 ft 369 kts 349°
2026-05-05 15:17 52.75813 13.99518 15808 ft 371 kts 349°
2026-05-05 15:18 52.78387 13.98969 15866 ft 371 kts 349°
2026-05-05 15:18 52.80918 13.98435 15868 ft 371 kts 349°
2026-05-05 15:18 52.83484 13.97893 15871 ft 371 kts 349°
2026-05-05 15:18 52.86050 13.97347 15871 ft 371 kts 349°
2026-05-05 15:19 52.88636 13.97128 15870 ft 374 kts 360°
2026-05-05 15:19 52.91226 13.97786 15875 ft 379 kts 12°
2026-05-05 15:19 52.93704 13.99323 15879 ft 381 kts 24°
2026-05-05 15:19 52.95930 14.01637 15877 ft 384 kts 35°
2026-05-05 15:20 52.98075 14.04299 15878 ft 384 kts 35°
2026-05-05 15:20 53.00219 14.06951 15876 ft 384 kts 34°
2026-05-05 15:20 53.02361 14.09592 15882 ft 384 kts 34°
2026-05-05 15:20 53.03994 14.11605 15881 ft 384 kts 34°
2026-05-05 15:21 53.06147 14.14260 15979 ft 387 kts 34°
2026-05-05 15:21 53.08314 14.16937 16615 ft 389 kts 34°
2026-05-05 15:21 53.10488 14.19634 17209 ft 392 kts 34°
2026-05-05 15:21 53.12656 14.22332 17764 ft 395 kts 34°
2026-05-05 15:22 53.14865 14.25088 18307 ft 398 kts 34°
2026-05-05 15:22 53.17089 14.27865 18776 ft 401 kts 34°
2026-05-05 15:22 53.19343 14.30684 19232 ft 405 kts 34°
2026-05-05 15:22 53.21604 14.33516 19676 ft 408 kts 34°
2026-05-05 15:23 53.23887 14.36373 20103 ft 412 kts 34°
2026-05-05 15:23 53.26199 14.39254 20516 ft 415 kts 33°
2026-05-05 15:23 53.28669 14.41762 20902 ft 415 kts 23°
2026-05-05 15:23 53.31310 14.43730 21290 ft 417 kts 20°
2026-05-05 15:24 53.33949 14.45641 21704 ft 420 kts 20°
2026-05-05 15:24 53.36646 14.47605 22130 ft 423 kts 20°
2026-05-05 15:24 53.39361 14.49592 22512 ft 427 kts 19°
2026-05-05 15:24 53.42093 14.51593 22890 ft 430 kts 19°
2026-05-05 15:25 53.44845 14.53615 23270 ft 433 kts 19°
2026-05-05 15:25 53.47623 14.55661 23627 ft 436 kts 19°
2026-05-05 15:25 53.50373 14.57688 23953 ft 439 kts 19°
2026-05-05 15:25 53.53183 14.59760 24296 ft 441 kts 19°
2026-05-05 15:26 53.56005 14.61840 24647 ft 444 kts 19°
2026-05-05 15:26 53.58841 14.63933 24989 ft 447 kts 19°
2026-05-05 15:26 53.61678 14.66031 25353 ft 449 kts 19°
2026-05-05 15:26 53.64551 14.68156 25695 ft 452 kts 19°
2026-05-05 15:27 53.67449 14.70302 26055 ft 455 kts 19°
2026-05-05 15:27 53.70362 14.72464 26377 ft 458 kts 19°
2026-05-05 15:27 53.73295 14.74654 26703 ft 460 kts 19°
2026-05-05 15:27 53.76229 14.76853 27030 ft 463 kts 19°
2026-05-05 15:28 53.79152 14.79048 27354 ft 465 kts 19°
2026-05-05 15:28 53.82128 14.81283 27691 ft 468 kts 19°
2026-05-05 15:28 53.85122 14.83528 28044 ft 471 kts 18°
2026-05-05 15:28 53.88124 14.85777 28368 ft 473 kts 18°
2026-05-05 15:29 53.91159 14.88051 28677 ft 476 kts 18°
2026-05-05 15:29 53.94194 14.90336 28989 ft 479 kts 18°
2026-05-05 15:29 53.97211 14.92613 29299 ft 481 kts 18°
2026-05-05 15:29 54.00282 14.94934 29622 ft 484 kts 18°
2026-05-05 15:30 54.03375 14.97275 29924 ft 486 kts 18°
2026-05-05 15:30 54.06486 14.99630 30172 ft 488 kts 18°
2026-05-05 15:30 54.09595 15.01985 30440 ft 490 kts 18°
2026-05-05 15:30 54.12720 15.04346 30682 ft 491 kts 18°
2026-05-05 15:31 54.15856 15.06711 30920 ft 492 kts 18°
2026-05-05 15:31 54.18951 15.09050 31216 ft 492 kts 18°
2026-05-05 15:31 54.22079 15.11425 31563 ft 491 kts 18°
2026-05-05 15:31 54.25200 15.13805 31905 ft 489 kts 18°
2026-05-05 15:32 54.28308 15.16180 32237 ft 488 kts 18°
2026-05-05 15:32 54.31412 15.18550 32637 ft 487 kts 18°
2026-05-05 15:32 54.34468 15.20882 32978 ft 485 kts 18°
2026-05-05 15:32 54.37548 15.23236 33318 ft 484 kts 18°
2026-05-05 15:33 54.40636 15.25602 33663 ft 483 kts 19°
2026-05-05 15:33 54.43707 15.27965 33980 ft 482 kts 19°
2026-05-05 15:33 54.46769 15.30330 34249 ft 481 kts 19°
2026-05-05 15:33 54.49825 15.32696 34505 ft 481 kts 19°
2026-05-05 15:34 54.52877 15.35066 34752 ft 480 kts 19°
2026-05-05 15:34 54.55880 15.37402 35033 ft 480 kts 19°
2026-05-05 15:34 54.58918 15.39770 35282 ft 479 kts 20°
2026-05-05 15:34 54.61960 15.42142 35527 ft 478 kts 20°
2026-05-05 15:35 54.64997 15.44508 35763 ft 478 kts 20°
2026-05-05 15:35 54.68036 15.46879 35895 ft 478 kts 20°
2026-05-05 15:35 54.71063 15.49250 35923 ft 477 kts 20°
2026-05-05 15:36 54.77071 15.53983 35924 ft 477 kts 20°
2026-05-05 15:36 54.83107 15.58743 35920 ft 476 kts 20°
2026-05-05 15:37 54.89155 15.63521 35920 ft 477 kts 20°
2026-05-05 15:37 54.94944 15.69134 35926 ft 481 kts 29°
2026-05-05 15:38 55.00604 15.75450 35916 ft 481 kts 29°
2026-05-05 15:38 55.06211 15.81743 35918 ft 481 kts 29°
2026-05-05 15:39 55.11857 15.88096 35916 ft 481 kts 29°
2026-05-05 15:39 55.17463 15.94412 35918 ft 481 kts 29°
2026-05-05 15:40 55.23097 16.00778 35919 ft 481 kts 29°
2026-05-05 15:40 55.28724 16.07151 35910 ft 480 kts 29°
2026-05-05 15:41 55.34298 16.13504 35919 ft 480 kts 30°
2026-05-05 15:41 55.39910 16.19924 35915 ft 480 kts 29°
2026-05-05 15:42 55.45521 16.26343 35912 ft 480 kts 29°
2026-05-05 15:42 55.51088 16.32749 35901 ft 480 kts 30°
2026-05-05 15:43 55.56678 16.39201 35914 ft 479 kts 30°
2026-05-05 15:43 55.62240 16.45639 35905 ft 479 kts 30°
2026-05-05 15:44 55.67828 16.52138 35917 ft 479 kts 30°
2026-05-05 15:44 55.73410 16.58644 35919 ft 479 kts 30°
2026-05-05 15:45 55.78976 16.65158 35904 ft 478 kts 30°
2026-05-05 15:45 55.84500 16.71661 35901 ft 478 kts 30°
2026-05-05 15:46 55.90024 16.78176 35901 ft 478 kts 30°
2026-05-05 15:46 55.95587 16.84736 35921 ft 478 kts 30°
2026-05-05 15:47 56.01089 16.91265 35899 ft 477 kts 30°
2026-05-05 15:47 56.06605 16.97848 35899 ft 476 kts 30°
2026-05-05 15:48 56.12119 17.04445 35891 ft 476 kts 30°
2026-05-05 15:48 56.17637 17.11073 35892 ft 476 kts 30°
2026-05-05 15:49 56.23118 17.17665 35894 ft 476 kts 30°
2026-05-05 15:49 56.27741 17.23223 35890 ft 476 kts 30°
2026-05-05 15:50 56.33219 17.29848 35888 ft 476 kts 30°
2026-05-05 15:50 56.38722 17.36554 35892 ft 476 kts 30°
2026-05-05 15:51 56.44193 17.43248 35901 ft 477 kts 30°
2026-05-05 15:51 56.49699 17.49995 35878 ft 477 kts 30°
2026-05-05 15:52 56.55169 17.56710 35887 ft 477 kts 30°
2026-05-05 15:52 56.60683 17.63493 35881 ft 477 kts 30°
2026-05-05 15:53 56.66174 17.70288 35885 ft 478 kts 31°
2026-05-05 15:53 56.71661 17.77107 35896 ft 480 kts 30°
2026-05-05 15:54 56.77185 17.83979 35898 ft 481 kts 30°
2026-05-05 15:54 56.82725 17.90908 35897 ft 481 kts 30°
2026-05-05 15:55 56.88206 17.97802 35896 ft 481 kts 31°
2026-05-05 15:55 56.93731 18.04772 35896 ft 483 kts 30°
2026-05-05 15:56 56.99275 18.11786 35898 ft 484 kts 30°
2026-05-05 15:56 57.04810 18.18803 35903 ft 484 kts 31°
2026-05-05 15:57 57.10314 18.25815 35901 ft 484 kts 31°
2026-05-05 15:57 57.15869 18.32918 35897 ft 485 kts 30°
2026-05-05 15:57 57.18652 18.36481 36021 ft 486 kts 30°
2026-05-05 15:58 57.21433 18.40053 36241 ft 487 kts 31°
2026-05-05 15:58 57.24178 18.43592 36450 ft 487 kts 31°
2026-05-05 15:58 57.26957 18.47184 36660 ft 487 kts 31°
2026-05-05 15:58 57.29732 18.50782 36842 ft 487 kts 31°
2026-05-05 15:59 57.32504 18.54384 36900 ft 485 kts 31°
2026-05-05 15:59 57.38030 18.61553 36896 ft 483 kts 31°
2026-05-05 16:00 57.43543 18.68705 36900 ft 483 kts 31°
2026-05-05 16:00 57.49021 18.75869 36892 ft 483 kts 31°
2026-05-05 16:01 57.54529 18.83108 36903 ft 483 kts 31°
2026-05-05 16:01 57.59995 18.90302 36900 ft 484 kts 31°
2026-05-05 16:02 57.65495 18.97567 36919 ft 484 kts 31°
2026-05-05 16:02 57.70980 19.04872 36894 ft 484 kts 31°
2026-05-05 16:03 57.76466 19.12201 36890 ft 484 kts 31°
2026-05-05 16:03 57.81970 19.19553 36872 ft 484 kts 31°
2026-05-05 16:04 57.87422 19.26862 36916 ft 484 kts 31°
2026-05-05 16:04 57.92909 19.34271 36894 ft 485 kts 31°
2026-05-05 16:05 57.98363 19.41651 36897 ft 485 kts 31°
2026-05-05 16:05 58.03853 19.49093 36892 ft 485 kts 32°
2026-05-05 16:06 58.09311 19.56548 36921 ft 485 kts 32°
2026-05-05 16:06 58.14795 19.64063 36900 ft 486 kts 31°
2026-05-05 16:07 58.20291 19.71614 36879 ft 487 kts 32°
2026-05-05 16:07 58.25743 19.79136 36881 ft 487 kts 32°
2026-05-05 16:08 58.31245 19.86756 36879 ft 488 kts 32°
2026-05-05 16:08 58.36709 19.94359 36901 ft 489 kts 32°
2026-05-05 16:09 58.42203 20.02023 36878 ft 489 kts 32°
2026-05-05 16:09 58.47705 20.09726 36872 ft 490 kts 32°
2026-05-05 16:10 58.53171 20.17435 36869 ft 490 kts 32°
2026-05-05 16:10 58.58665 20.25181 36915 ft 490 kts 32°
2026-05-05 16:11 58.64184 20.32959 36890 ft 491 kts 32°
2026-05-05 16:12 58.75151 20.48597 36871 ft 492 kts 32°
2026-05-05 16:13 58.88861 20.68376 36878 ft 493 kts 32°
2026-05-05 16:13 58.94358 20.76376 36840 ft 494 kts 32°
2026-05-05 16:14 59.04986 20.93302 36862 ft 500 kts 47°
2026-05-05 16:15 59.12501 21.16155 36870 ft 504 kts 57°
2026-05-05 16:16 59.19810 21.39566 36866 ft 505 kts 57°
2026-05-05 16:17 59.25230 21.57142 36899 ft 505 kts 57°
2026-05-05 16:18 59.30665 21.74841 36883 ft 506 kts 57°
2026-05-05 16:19 59.36070 21.92620 36861 ft 506 kts 57°
2026-05-05 16:19 59.41455 22.10438 35879 ft 511 kts 57°
2026-05-05 16:20 59.45099 22.22564 34100 ft 522 kts 57°
2026-05-05 16:20 59.48805 22.34967 32400 ft 523 kts 57°
2026-05-05 16:21 59.52447 22.47269 31231 ft 514 kts 58°
2026-05-05 16:22 59.57752 22.65309 29542 ft 502 kts 58°
2026-05-05 16:22 59.61210 22.77100 28477 ft 488 kts 58°
2026-05-05 16:23 59.64557 22.88575 27463 ft 475 kts 58°
2026-05-05 16:23 59.66194 22.94221 26971 ft 469 kts 58°
2026-05-05 16:23 59.69367 23.05217 26027 ft 456 kts 58°
2026-05-05 16:24 59.70935 23.10655 25580 ft 449 kts 58°
2026-05-05 16:24 59.72477 23.16007 25135 ft 444 kts 58°
2026-05-05 16:24 59.75486 23.26485 24287 ft 434 kts 58°
2026-05-05 16:25 59.76977 23.31686 23866 ft 431 kts 58°
2026-05-05 16:25 59.79903 23.41938 22968 ft 426 kts 58°
2026-05-05 16:25 59.81357 23.47064 22549 ft 423 kts 58°
2026-05-05 16:26 59.84236 23.57274 21682 ft 420 kts 58°
2026-05-05 16:26 59.87084 23.67376 20802 ft 415 kts 58°
2026-05-05 16:27 59.88472 23.72314 20344 ft 412 kts 59°
2026-05-05 16:27 59.89858 23.77263 20133 ft 406 kts 59°
2026-05-05 16:27 59.91219 23.82204 19988 ft 407 kts 62°
2026-05-05 16:27 59.92376 23.87377 19498 ft 410 kts 66°
2026-05-05 16:28 59.93493 23.92584 19082 ft 406 kts 66°
2026-05-05 16:28 59.94598 23.97785 18580 ft 405 kts 66°
2026-05-05 16:28 59.95685 24.02930 18180 ft 401 kts 66°
2026-05-05 16:28 59.96748 24.07990 17687 ft 399 kts 66°
2026-05-05 16:29 59.97811 24.13057 17324 ft 392 kts 66°
2026-05-05 16:29 59.98860 24.18046 16728 ft 386 kts 66°
2026-05-05 16:29 59.99893 24.22957 16107 ft 383 kts 67°
2026-05-05 16:29 60.00921 24.27864 15435 ft 380 kts 67°
2026-05-05 16:30 60.01937 24.32728 14815 ft 377 kts 67°
2026-05-05 16:30 60.02932 24.37494 14216 ft 373 kts 67°
2026-05-05 16:30 60.03925 24.42266 13634 ft 369 kts 67°
2026-05-05 16:30 60.04910 24.47005 13002 ft 365 kts 67°
2026-05-05 16:31 60.05874 24.51654 12444 ft 358 kts 66°
2026-05-05 16:31 60.06818 24.56220 11879 ft 351 kts 66°
2026-05-05 16:31 60.07741 24.60701 11344 ft 345 kts 66°
2026-05-05 16:31 60.08646 24.65104 10799 ft 338 kts 66°
2026-05-05 16:32 60.09530 24.69375 10161 ft 334 kts 64°
2026-05-05 16:32 60.10680 24.73372 9568 ft 328 kts 51°
2026-05-05 16:32 60.12145 24.76801 8945 ft 320 kts 43°
2026-05-05 16:32 60.13646 24.80051 8376 ft 313 kts 43°
2026-05-05 16:33 60.15105 24.83232 7806 ft 307 kts 44°
2026-05-05 16:33 60.16523 24.86335 7272 ft 301 kts 44°
2026-05-05 16:33 60.17920 24.89397 6752 ft 294 kts 44°
2026-05-05 16:33 60.19287 24.92400 6264 ft 286 kts 44°
2026-05-05 16:34 60.20614 24.95317 5709 ft 280 kts 45°
2026-05-05 16:34 60.21921 24.98193 5088 ft 277 kts 44°
2026-05-05 16:34 60.23218 25.01044 4483 ft 274 kts 44°
2026-05-05 16:34 60.24500 25.03860 3864 ft 271 kts 44°
2026-05-05 16:35 60.25761 25.06630 3230 ft 271 kts 44°
2026-05-05 16:35 60.27031 25.09428 2617 ft 269 kts 44°
2026-05-05 16:35 60.28266 25.12167 2335 ft 254 kts 44°
2026-05-05 16:35 60.29401 25.14699 2222 ft 231 kts 45°
2026-05-05 16:36 60.30448 25.16968 2077 ft 211 kts 37°
2026-05-05 16:36 60.31663 25.18073 2000 ft 178 kts 356°
2026-05-05 16:36 60.32770 25.17512 2003 ft 157 kts 325°
2026-05-05 16:36 60.33651 25.16342 1999 ft 145 kts 318°
2026-05-05 16:37 60.34439 25.15152 1925 ft 137 kts 316°
2026-05-05 16:37 60.35084 25.13804 1873 ft 132 kts 295°
2026-05-05 16:37 60.35381 25.12050 1734 ft 133 kts 280°
2026-05-05 16:37 60.35544 25.10201 1522 ft 134 kts 277°
2026-05-05 16:38 60.35650 25.08330 1326 ft 133 kts 272°
2026-05-05 16:38 60.35675 25.06454 1177 ft 135 kts 270°
2026-05-05 16:38 60.35610 25.04576 1055 ft 134 kts 258°
2026-05-05 16:38 60.35411 25.03395 960 ft 135 kts 248°
2026-05-05 16:39 60.34871 25.01847 793 ft 139 kts 229°
2026-05-05 16:39 60.33993 24.99993 510 ft 137 kts 230°
2026-05-05 16:39 60.33371 24.98589 334 ft 135 kts 231°
2026-05-05 16:39 60.32739 24.97202 182 ft 131 kts 231°
2026-05-05 16:40 60.32357 24.96334 178 ft 106 kts 227°
2026-05-05 16:40 60.32004 24.95551 174 ft 43 kts 229°
2026-05-05 16:40 60.31823 24.95292 173 ft 22 kts 202°
2026-05-05 16:40 60.31708 24.95210 171 ft 17 kts 198°
2026-05-05 16:41 60.31634 24.95291 168 ft 15 kts 77°
2026-05-05 16:41 60.31695 24.95445 169 ft 13 kts 47°
2026-05-05 16:41 60.31755 24.95577 170 ft 13 kts 47°
2026-05-05 16:41 60.31811 24.95698 169 ft 8 kts 47°
2026-05-05 16:42 60.31832 24.95746 169 ft 3 kts 47°
2026-05-05 16:42 60.31848 24.95781 169 ft 3 kts 47°
2026-05-05 16:42 60.31872 24.95834 169 ft 9 kts 47°
2026-05-05 16:42 60.31891 24.95878 168 ft 4 kts 47°
2026-05-05 16:43 60.31925 24.96009 168 ft 15 kts 103°
2026-05-05 16:43 60.31858 24.96204 164 ft 16 kts 97°
2026-05-05 16:43 60.31888 24.96396 164 ft 15 kts 49°
2026-05-05 16:43 60.31955 24.96543 163 ft 14 kts 47°
2026-05-05 16:44 60.31971 24.96630 163 ft 6 kts 122°
2026-05-05 16:44 60.31952 24.96667 163 ft 3 kts 137°
2026-05-05 16:44 60.31945 24.96680 163 ft 1 kts 137°